QTR8319 YMAV-WMKK

Flight info

Callsign QTR8319
Flight time 7h 37m
Altitude 36000
Route ML H164 KEPPA Q168 WR T29 LIBTU/N0484F380 T29 CIN A576 ATMAP M635 JUNHA DCT IRTAD A464 SJ G579 VJB A457 GUPTA GUPTA1G
Aircraft B77L/H-SDE1E2E3FGHIJ2J3J4J5M1RWXY/LB1D1

Departure

Time 2026-04-09 05:40
Airport Melbourne Avalon International Airport (YMAV)

Arrival

Time 2026-04-09 13:17
Airport Kuala Lumpur International Airport (WMKK)
Time Latitude Longitude Altitude Speed Heading
2026-04-09 05:14 -38.03000 144.47503 68 ft 0 kts
2026-04-09 05:31 -38.02994 144.47504 40 ft 3 kts
2026-04-09 05:31 -38.02961 144.47471 40 ft 7 kts 296°
2026-04-09 05:32 -38.02950 144.47409 40 ft 7 kts 278°
2026-04-09 05:32 -38.02965 144.47351 40 ft 7 kts 220°
2026-04-09 05:32 -38.03017 144.47335 40 ft 9 kts 187°
2026-04-09 05:32 -38.03107 144.47311 40 ft 18 kts 200°
2026-04-09 05:33 -38.03205 144.47212 40 ft 18 kts 233°
2026-04-09 05:33 -38.03287 144.47091 41 ft 18 kts 216°
2026-04-09 05:33 -38.03406 144.47042 41 ft 18 kts 187°
2026-04-09 05:34 -38.03658 144.47000 41 ft 18 kts 187°
2026-04-09 05:34 -38.03786 144.46978 41 ft 20 kts 187°
2026-04-09 05:34 -38.03936 144.46952 40 ft 23 kts 188°
2026-04-09 05:34 -38.04096 144.46924 40 ft 23 kts 188°
2026-04-09 05:35 -38.04256 144.46897 40 ft 24 kts 187°
2026-04-09 05:35 -38.04430 144.46868 41 ft 25 kts 187°
2026-04-09 05:35 -38.04605 144.46839 41 ft 25 kts 187°
2026-04-09 05:35 -38.04721 144.46820 40 ft 25 kts 187°
2026-04-09 05:36 -38.04896 144.46790 41 ft 25 kts 187°
2026-04-09 05:36 -38.05071 144.46761 41 ft 25 kts 187°
2026-04-09 05:36 -38.05243 144.46731 41 ft 22 kts 187°
2026-04-09 05:36 -38.05381 144.46700 41 ft 9 kts 201°
2026-04-09 05:37 -38.05404 144.46683 41 ft 4 kts 215°
2026-04-09 05:37 -38.05420 144.46665 41 ft 2 kts 226°
2026-04-09 05:37 -38.05421 144.46662 41 ft 0 kts 228°
2026-04-09 05:37 -38.05422 144.46662 41 ft 0 kts 228°
2026-04-09 05:38 -38.05426 144.46655 41 ft 3 kts 230°
2026-04-09 05:38 -38.05441 144.46619 41 ft 7 kts 251°
2026-04-09 05:38 -38.05442 144.46548 41 ft 8 kts 280°
2026-04-09 05:38 -38.05419 144.46493 42 ft 6 kts 329°
2026-04-09 05:39 -38.05392 144.46491 42 ft 0 kts
2026-04-09 05:39 -38.05347 144.46498 41 ft 21 kts
2026-04-09 05:39 -38.04937 144.46565 41 ft 102 kts
2026-04-09 05:39 -38.03979 144.46729 51 ft 171 kts
2026-04-09 05:40 -38.02760 144.46972 734 ft 175 kts
2026-04-09 05:40 -38.01560 144.47228 1605 ft 178 kts
2026-04-09 05:40 -38.00337 144.47435 2454 ft 178 kts
2026-04-09 05:40 -37.99047 144.47667 2952 ft 199 kts
2026-04-09 05:41 -37.97605 144.48094 3290 ft 226 kts
2026-04-09 05:41 -37.96012 144.48608 3919 ft 240 kts
2026-04-09 05:41 -37.94408 144.49152 4926 ft 240 kts
2026-04-09 05:41 -37.92769 144.49761 5667 ft 251 kts
2026-04-09 05:42 -37.91073 144.50446 6417 ft 259 kts
2026-04-09 05:42 -37.89346 144.51167 7196 ft 265 kts
2026-04-09 05:42 -37.87582 144.51875 8012 ft 265 kts
2026-04-09 05:42 -37.85795 144.52039 8669 ft 255 kts 339°
2026-04-09 05:43 -37.84187 144.51181 9316 ft 252 kts 328°
2026-04-09 05:43 -37.82604 144.50164 10063 ft 257 kts 327°
2026-04-09 05:43 -37.81014 144.49122 10659 ft 270 kts 328°
2026-04-09 05:43 -37.79240 144.48038 10863 ft 298 kts 329°
2026-04-09 05:44 -37.77268 144.46899 11079 ft 324 kts 330°
2026-04-09 05:44 -37.75154 144.45736 11752 ft 336 kts 332°
2026-04-09 05:44 -37.72976 144.44574 12589 ft 343 kts 332°
2026-04-09 05:44 -37.70752 144.43413 13484 ft 349 kts 332°
2026-04-09 05:45 -37.68493 144.42248 14318 ft 353 kts 333°
2026-04-09 05:45 -37.66203 144.41077 15212 ft 356 kts 333°
2026-04-09 05:45 -37.63898 144.39903 16085 ft 359 kts 333°
2026-04-09 05:45 -37.61571 144.38720 16902 ft 363 kts 333°
2026-04-09 05:46 -37.59213 144.37521 17664 ft 368 kts 333°
2026-04-09 05:46 -37.56823 144.36308 18378 ft 372 kts 333°
2026-04-09 05:46 -37.54441 144.35100 19089 ft 375 kts 333°
2026-04-09 05:46 -37.52010 144.33869 19765 ft 378 kts 333°
2026-04-09 05:47 -37.49552 144.32623 20432 ft 382 kts 333°
2026-04-09 05:47 -37.47072 144.31368 21088 ft 386 kts 333°
2026-04-09 05:47 -37.44571 144.30103 21749 ft 390 kts 333°
2026-04-09 05:47 -37.42041 144.28824 22370 ft 394 kts 333°
2026-04-09 05:48 -37.39486 144.27533 23030 ft 397 kts 333°
2026-04-09 05:48 -37.36906 144.26232 23650 ft 400 kts 333°
2026-04-09 05:48 -37.34312 144.24923 24184 ft 403 kts 333°
2026-04-09 05:48 -37.31693 144.23603 24669 ft 408 kts 333°
2026-04-09 05:49 -37.29083 144.22288 25155 ft 412 kts 333°
2026-04-09 05:49 -37.26412 144.20944 25690 ft 415 kts 333°
2026-04-09 05:49 -37.23727 144.19594 26231 ft 417 kts 333°
2026-04-09 05:49 -37.21016 144.18232 26745 ft 420 kts 333°
2026-04-09 05:50 -37.18284 144.16860 27224 ft 424 kts 333°
2026-04-09 05:50 -37.15524 144.15476 27637 ft 432 kts 333°
2026-04-09 05:50 -37.12708 144.14065 28199 ft 437 kts 333°
2026-04-09 05:50 -37.09898 144.12658 28907 ft 434 kts 333°
2026-04-09 05:51 -37.07090 144.11252 29406 ft 436 kts 333°
2026-04-09 05:51 -37.04260 144.09834 29778 ft 439 kts 333°
2026-04-09 05:51 -37.01407 144.08407 30069 ft 443 kts 333°
2026-04-09 05:51 -36.98530 144.06972 30428 ft 444 kts 333°
2026-04-09 05:52 -36.95699 144.05562 30895 ft 443 kts 333°
2026-04-09 05:52 -36.92846 144.04142 31376 ft 441 kts 333°
2026-04-09 05:52 -36.89998 144.02723 31811 ft 440 kts 333°
2026-04-09 05:52 -36.87150 144.01305 32202 ft 441 kts 332°
2026-04-09 05:53 -36.84304 143.99864 32680 ft 439 kts 330°
2026-04-09 05:53 -36.81655 143.98065 33182 ft 430 kts 322°
2026-04-09 05:53 -36.79230 143.95915 33613 ft 426 kts 318°
2026-04-09 05:53 -36.76963 143.93562 34083 ft 420 kts 314°
2026-04-09 05:54 -36.74965 143.90964 34595 ft 412 kts 308°
2026-04-09 05:54 -36.73091 143.88265 34945 ft 412 kts 307°
2026-04-09 05:54 -36.71216 143.85552 35106 ft 415 kts 307°
2026-04-09 05:54 -36.69322 143.82816 35274 ft 418 kts 307°
2026-04-09 05:55 -36.67416 143.80073 35463 ft 419 kts 307°
2026-04-09 05:55 -36.65498 143.77326 35703 ft 420 kts 307°
2026-04-09 05:55 -36.61633 143.71811 35802 ft 422 kts 307°
2026-04-09 05:56 -36.57823 143.66399 35835 ft 416 kts 307°
2026-04-09 05:56 -36.54014 143.60996 35834 ft 414 kts 307°
2026-04-09 05:57 -36.50222 143.55621 35808 ft 413 kts 306°
2026-04-09 05:57 -36.46442 143.50275 35826 ft 410 kts 306°
2026-04-09 05:58 -36.42685 143.44969 35837 ft 408 kts 306°
2026-04-09 05:58 -36.38946 143.39696 35832 ft 406 kts 306°
2026-04-09 05:59 -36.35217 143.34446 35827 ft 405 kts 306°
2026-04-09 05:59 -36.31491 143.29208 35836 ft 404 kts 306°
2026-04-09 06:00 -36.27795 143.24019 35840 ft 404 kts 307°
2026-04-09 06:00 -36.24075 143.18807 35832 ft 403 kts 307°
2026-04-09 06:01 -36.20361 143.13611 35833 ft 402 kts 307°
2026-04-09 06:01 -36.16650 143.08426 35837 ft 402 kts 307°
2026-04-09 06:02 -36.12942 143.03253 35841 ft 401 kts 307°
2026-04-09 06:02 -36.09235 142.98091 35833 ft 401 kts 307°
2026-04-09 06:03 -36.05532 142.92942 35835 ft 400 kts 307°
2026-04-09 06:03 -36.01829 142.87802 35842 ft 400 kts 307°
2026-04-09 06:04 -35.98132 142.82677 35842 ft 400 kts 307°
2026-04-09 06:04 -35.94459 142.77593 35840 ft 399 kts 307°
2026-04-09 06:05 -35.90759 142.72478 35842 ft 399 kts 307°
2026-04-09 06:05 -35.87058 142.67370 35845 ft 399 kts 307°
2026-04-09 06:06 -35.83361 142.62275 35843 ft 399 kts 307°
2026-04-09 06:06 -35.79656 142.57175 35845 ft 399 kts 307°
2026-04-09 06:07 -35.75953 142.52087 35846 ft 399 kts 307°
2026-04-09 06:07 -35.72269 142.47037 35843 ft 398 kts 307°
2026-04-09 06:08 -35.68567 142.41971 35844 ft 398 kts 307°
2026-04-09 06:08 -35.64862 142.36904 35852 ft 398 kts 307°
2026-04-09 06:09 -35.61152 142.31836 35848 ft 399 kts 307°
2026-04-09 06:09 -35.57437 142.26770 35853 ft 399 kts 307°
2026-04-09 06:10 -35.53717 142.21706 35855 ft 399 kts 307°
2026-04-09 06:10 -35.49988 142.16638 35852 ft 399 kts 307°
2026-04-09 06:11 -35.46264 142.11582 35851 ft 399 kts 307°
2026-04-09 06:11 -35.42533 142.06526 35853 ft 399 kts 307°
2026-04-09 06:12 -35.38802 142.01477 35862 ft 399 kts 307°
2026-04-09 06:12 -35.35078 141.96445 35852 ft 399 kts 307°
2026-04-09 06:13 -35.31346 141.91409 35862 ft 399 kts 307°
2026-04-09 06:13 -35.27642 141.86420 35849 ft 398 kts 306°
2026-04-09 06:14 -35.23913 141.81402 35861 ft 398 kts 306°
2026-04-09 06:14 -35.20184 141.76393 35869 ft 397 kts 306°
2026-04-09 06:15 -35.16466 141.71405 35863 ft 396 kts 306°
2026-04-09 06:15 -35.12759 141.66440 35863 ft 395 kts 306°
2026-04-09 06:16 -35.09062 141.61494 35860 ft 394 kts 306°
2026-04-09 06:16 -35.05375 141.56569 35867 ft 393 kts 306°
2026-04-09 06:17 -35.01687 141.51647 35863 ft 392 kts 306°
2026-04-09 06:17 -34.98028 141.46774 35864 ft 392 kts 306°
2026-04-09 06:18 -34.94344 141.41875 35867 ft 392 kts 306°
2026-04-09 06:18 -34.90655 141.36976 35847 ft 392 kts 306°
2026-04-09 06:19 -34.86971 141.32090 35852 ft 391 kts 306°
2026-04-09 06:19 -34.83290 141.27213 35860 ft 390 kts 306°
2026-04-09 06:20 -34.79616 141.22350 35858 ft 390 kts 306°
2026-04-09 06:20 -34.75938 141.17490 35858 ft 390 kts 306°
2026-04-09 06:21 -34.72293 141.12681 35860 ft 389 kts 306°
2026-04-09 06:21 -34.68625 141.07847 35861 ft 389 kts 306°
2026-04-09 06:22 -34.64962 141.03026 35857 ft 388 kts 306°
2026-04-09 06:22 -34.61294 140.98208 35859 ft 388 kts 306°
2026-04-09 06:23 -34.57631 140.93401 35859 ft 388 kts 306°
2026-04-09 06:23 -34.53962 140.88593 35855 ft 388 kts 306°
2026-04-09 06:24 -34.50290 140.83789 35827 ft 388 kts 305°
2026-04-09 06:24 -34.46621 140.78996 35845 ft 387 kts 305°
2026-04-09 06:25 -34.42955 140.74213 35858 ft 386 kts 305°
2026-04-09 06:25 -34.39914 140.70248 35849 ft 386 kts 305°
2026-04-09 06:26 -34.35662 140.64716 35853 ft 386 kts 305°
2026-04-09 06:26 -34.32011 140.59971 35853 ft 385 kts 305°
2026-04-09 06:27 -34.27146 140.53659 35857 ft 385 kts 305°
2026-04-09 06:28 -34.23500 140.48936 35855 ft 384 kts 305°
2026-04-09 06:28 -34.19849 140.44213 35856 ft 384 kts 305°
2026-04-09 06:29 -34.16197 140.39496 35847 ft 384 kts 305°
2026-04-09 06:29 -34.12551 140.34793 35854 ft 383 kts 305°
2026-04-09 06:30 -34.08908 140.30100 35851 ft 382 kts 305°
2026-04-09 06:30 -34.05269 140.25418 35859 ft 382 kts 305°
2026-04-09 06:31 -34.01634 140.20746 35863 ft 381 kts 305°
2026-04-09 06:31 -33.98027 140.16118 35858 ft 381 kts 305°
2026-04-09 06:32 -33.94398 140.11468 35867 ft 381 kts 305°
2026-04-09 06:32 -33.90773 140.06828 35864 ft 381 kts 305°
2026-04-09 06:33 -33.87143 140.02188 35859 ft 381 kts 305°
2026-04-09 06:33 -33.83508 139.97549 35866 ft 380 kts 305°
2026-04-09 06:34 -33.79875 139.92919 35861 ft 380 kts 305°
2026-04-09 06:34 -33.76243 139.88296 35866 ft 380 kts 305°
2026-04-09 06:35 -33.72614 139.83683 35869 ft 380 kts 305°
2026-04-09 06:35 -33.68985 139.79074 35862 ft 379 kts 305°
2026-04-09 06:36 -33.65351 139.74466 35846 ft 380 kts 305°
2026-04-09 06:36 -33.61711 139.69856 35864 ft 380 kts 305°
2026-04-09 06:37 -33.58066 139.65246 35868 ft 381 kts 305°
2026-04-09 06:37 -33.54416 139.60635 35869 ft 382 kts 305°
2026-04-09 06:38 -33.50777 139.56045 35867 ft 382 kts 305°
2026-04-09 06:38 -33.47102 139.51416 35862 ft 383 kts 306°
2026-04-09 06:39 -33.43436 139.46801 35869 ft 383 kts 306°
2026-04-09 06:39 -33.39761 139.42184 35874 ft 383 kts 306°
2026-04-09 06:40 -33.36040 139.37611 35872 ft 384 kts 307°
2026-04-09 06:40 -33.32258 139.33094 35877 ft 384 kts 307°
2026-04-09 06:41 -33.28472 139.28579 35876 ft 384 kts 307°
2026-04-09 06:41 -33.24716 139.24089 35885 ft 386 kts 307°
2026-04-09 06:42 -33.20885 139.19501 35898 ft 394 kts 307°
2026-04-09 06:42 -33.16987 139.14844 35894 ft 398 kts 307°
2026-04-09 06:43 -33.13067 139.10172 35889 ft 398 kts 307°
2026-04-09 06:43 -33.09144 139.05502 35878 ft 398 kts 307°
2026-04-09 06:44 -33.05231 139.00850 35892 ft 397 kts 307°
2026-04-09 06:44 -33.01327 138.96211 35900 ft 396 kts 307°
2026-04-09 06:45 -32.97433 138.91591 35892 ft 395 kts 307°
2026-04-09 06:45 -32.93540 138.86977 35903 ft 395 kts 307°
2026-04-09 06:46 -32.89654 138.82378 35908 ft 394 kts 307°
2026-04-09 06:46 -32.85772 138.77788 35902 ft 393 kts 307°
2026-04-09 06:47 -32.81890 138.73205 35911 ft 393 kts 307°
2026-04-09 06:47 -32.78005 138.68626 35911 ft 393 kts 307°
2026-04-09 06:48 -32.74140 138.64074 35907 ft 394 kts 307°
2026-04-09 06:48 -32.70247 138.59496 35917 ft 394 kts 307°
2026-04-09 06:49 -32.66349 138.54919 35915 ft 394 kts 307°
2026-04-09 06:49 -32.62443 138.50338 35916 ft 395 kts 307°
2026-04-09 06:50 -32.58533 138.45759 35912 ft 395 kts 307°
2026-04-09 06:50 -32.54620 138.41181 35887 ft 395 kts 307°
2026-04-09 06:51 -32.50705 138.36608 35905 ft 396 kts 307°
2026-04-09 06:51 -32.46782 138.32031 35915 ft 396 kts 307°
2026-04-09 06:52 -32.42852 138.27451 35909 ft 397 kts 307°
2026-04-09 06:52 -32.38916 138.22871 35917 ft 397 kts 307°
2026-04-09 06:53 -32.34975 138.18291 35910 ft 397 kts 307°
2026-04-09 06:53 -32.31060 138.13748 35907 ft 397 kts 307°
2026-04-09 06:54 -32.27127 138.09189 35913 ft 396 kts 307°
2026-04-09 06:54 -32.23193 138.04634 35916 ft 395 kts 307°
2026-04-09 06:55 -32.19256 138.00082 35898 ft 395 kts 308°
2026-04-09 06:55 -32.15328 137.95543 35891 ft 396 kts 308°
2026-04-09 06:56 -32.11381 137.90991 35901 ft 398 kts 308°
2026-04-09 06:56 -32.07413 137.86421 35908 ft 399 kts 308°
2026-04-09 06:57 -32.03441 137.81852 35907 ft 399 kts 308°
2026-04-09 06:57 -31.99465 137.77285 35901 ft 399 kts 308°
2026-04-09 06:58 -31.95487 137.72721 35904 ft 399 kts 308°
2026-04-09 06:58 -31.91530 137.68186 35909 ft 399 kts 308°
2026-04-09 06:59 -31.87547 137.63628 35910 ft 400 kts 308°
2026-04-09 06:59 -31.83561 137.59071 35913 ft 400 kts 308°
2026-04-09 07:00 -31.79570 137.54516 35908 ft 400 kts 308°
2026-04-09 07:00 -31.75578 137.49964 35904 ft 399 kts 308°
2026-04-09 07:01 -31.71582 137.45412 35908 ft 401 kts 308°
2026-04-09 07:01 -31.67569 137.40847 35911 ft 402 kts 308°
2026-04-09 07:02 -31.63538 137.36269 35905 ft 404 kts 308°
2026-04-09 07:02 -31.59495 137.31684 35908 ft 404 kts 308°
2026-04-09 07:03 -31.55453 137.27105 35911 ft 404 kts 308°
2026-04-09 07:03 -31.51411 137.22532 35908 ft 404 kts 308°
2026-04-09 07:04 -31.47364 137.17959 35908 ft 404 kts 308°
2026-04-09 07:04 -31.43351 137.13429 35911 ft 403 kts 308°
2026-04-09 07:05 -31.39307 137.08871 35876 ft 403 kts 308°
2026-04-09 07:05 -31.35261 137.04315 35904 ft 404 kts 308°
2026-04-09 07:06 -31.31210 136.99758 35914 ft 405 kts 308°
2026-04-09 07:06 -31.27144 136.95191 35908 ft 405 kts 308°
2026-04-09 07:07 -31.23068 136.90619 35914 ft 406 kts 309°
2026-04-09 07:07 -31.18987 136.86046 35967 ft 407 kts 309°
2026-04-09 07:08 -31.14919 136.81495 35967 ft 407 kts 309°
2026-04-09 07:08 -31.10764 136.76988 35954 ft 409 kts 310°
2026-04-09 07:09 -31.06531 136.72544 35963 ft 409 kts 310°
2026-04-09 07:09 -31.02305 136.68110 35911 ft 408 kts 310°
2026-04-09 07:10 -30.98088 136.63673 35937 ft 408 kts 310°
2026-04-09 07:10 -30.93874 136.59233 35928 ft 409 kts 310°
2026-04-09 07:11 -30.89650 136.54787 35919 ft 409 kts 310°
2026-04-09 07:11 -30.85424 136.50344 35915 ft 409 kts 311°
2026-04-09 07:12 -30.81192 136.45901 35917 ft 410 kts 311°
2026-04-09 07:12 -30.76961 136.41464 35918 ft 410 kts 311°
2026-04-09 07:13 -30.72747 136.37051 35917 ft 410 kts 311°
2026-04-09 07:13 -30.68482 136.32590 35912 ft 410 kts 311°
2026-04-09 07:14 -30.64269 136.28189 35895 ft 410 kts 311°
2026-04-09 07:14 -30.60027 136.23762 35911 ft 411 kts 311°
2026-04-09 07:15 -30.55766 136.19321 35906 ft 412 kts 311°
2026-04-09 07:15 -30.51497 136.14877 35908 ft 413 kts 311°
2026-04-09 07:16 -30.47217 136.10428 35911 ft 413 kts 311°
2026-04-09 07:16 -30.43658 136.06732 35911 ft 413 kts 311°
2026-04-09 07:17 -30.39372 136.02286 35910 ft 414 kts 311°
2026-04-09 07:17 -30.35076 135.97837 35910 ft 413 kts 311°
2026-04-09 07:18 -30.30791 135.93403 35912 ft 413 kts 311°
2026-04-09 07:18 -30.26502 135.88971 35913 ft 413 kts 312°
2026-04-09 07:19 -30.22207 135.84537 35913 ft 414 kts 312°
2026-04-09 07:19 -30.17903 135.80099 35915 ft 415 kts 312°
2026-04-09 07:20 -30.13594 135.75663 35911 ft 415 kts 312°
2026-04-09 07:20 -30.09280 135.71225 35914 ft 416 kts 312°
2026-04-09 07:21 -30.04982 135.66811 35917 ft 416 kts 312°
2026-04-09 07:21 -30.00655 135.62372 35911 ft 416 kts 312°
2026-04-09 07:22 -29.96329 135.57939 35914 ft 416 kts 312°
2026-04-09 07:22 -29.92007 135.53516 35903 ft 415 kts 312°
2026-04-09 07:23 -29.87681 135.49094 35913 ft 416 kts 312°
2026-04-09 07:23 -29.83335 135.44657 35913 ft 417 kts 312°
2026-04-09 07:24 -29.78988 135.40224 35919 ft 417 kts 312°
2026-04-09 07:24 -29.74634 135.35789 35908 ft 418 kts 313°
2026-04-09 07:25 -29.70276 135.31356 35909 ft 418 kts 313°
2026-04-09 07:25 -29.65915 135.26925 35910 ft 418 kts 313°
2026-04-09 07:26 -29.61576 135.22522 35911 ft 419 kts 313°
2026-04-09 07:26 -29.57205 135.18092 35907 ft 419 kts 313°
2026-04-09 07:27 -29.52836 135.13668 35897 ft 419 kts 313°
2026-04-09 07:27 -29.48459 135.09242 35907 ft 420 kts 313°
2026-04-09 07:28 -29.44069 135.04808 35909 ft 420 kts 313°
2026-04-09 07:28 -29.39674 135.00375 35915 ft 421 kts 313°
2026-04-09 07:29 -29.35272 134.95940 35920 ft 421 kts 313°
2026-04-09 07:29 -29.30871 134.91511 35907 ft 420 kts 313°
2026-04-09 07:30 -29.26476 134.87094 35905 ft 420 kts 313°
2026-04-09 07:30 -29.22091 134.82692 35910 ft 419 kts 313°
2026-04-09 07:31 -29.15522 134.76105 35901 ft 418 kts 313°
2026-04-09 07:31 -29.11162 134.71740 35906 ft 419 kts 313°
2026-04-09 07:32 -29.06771 134.67349 35910 ft 420 kts 313°
2026-04-09 07:32 -29.02370 134.62953 35872 ft 421 kts 314°
2026-04-09 07:33 -28.97950 134.58542 35920 ft 422 kts 314°
2026-04-09 07:33 -28.93515 134.54126 35915 ft 424 kts 314°
2026-04-09 07:34 -28.89062 134.49703 35914 ft 424 kts 314°
2026-04-09 07:34 -28.84602 134.45280 35907 ft 425 kts 314°
2026-04-09 07:35 -28.80131 134.40848 35932 ft 426 kts 314°
2026-04-09 07:35 -28.75653 134.36414 35922 ft 427 kts 314°
2026-04-09 07:36 -28.71199 134.32010 35903 ft 426 kts 314°
2026-04-09 07:36 -28.66715 134.27580 35930 ft 427 kts 314°
2026-04-09 07:37 -28.62228 134.23152 35909 ft 427 kts 314°
2026-04-09 07:37 -28.57731 134.18721 35883 ft 427 kts 314°
2026-04-09 07:38 -28.53228 134.14287 35911 ft 428 kts 314°
2026-04-09 07:38 -28.48723 134.09858 35909 ft 429 kts 314°
2026-04-09 07:39 -28.44204 134.05419 35916 ft 429 kts 314°
2026-04-09 07:39 -28.39716 134.01017 35915 ft 429 kts 315°
2026-04-09 07:40 -28.35184 133.96577 35918 ft 430 kts 315°
2026-04-09 07:40 -28.30655 133.92145 35907 ft 430 kts 315°
2026-04-09 07:41 -28.26121 133.87713 35892 ft 430 kts 315°
2026-04-09 07:41 -28.21581 133.83280 35904 ft 431 kts 315°
2026-04-09 07:42 -28.17033 133.78845 35920 ft 431 kts 315°
2026-04-09 07:42 -28.12479 133.74409 35895 ft 432 kts 315°
2026-04-09 07:43 -28.07943 133.69995 35903 ft 432 kts 315°
2026-04-09 07:43 -28.03381 133.65562 35905 ft 433 kts 315°
2026-04-09 07:44 -27.98803 133.61118 35906 ft 433 kts 315°
2026-04-09 07:44 -27.94232 133.56685 35889 ft 433 kts 315°
2026-04-09 07:45 -27.89651 133.52249 35904 ft 434 kts 315°
2026-04-09 07:45 -27.85063 133.47811 35912 ft 434 kts 315°
2026-04-09 07:46 -27.80469 133.43372 35901 ft 435 kts 315°
2026-04-09 07:46 -27.75900 133.38962 35909 ft 435 kts 315°
2026-04-09 07:47 -27.71304 133.34532 35900 ft 434 kts 315°
2026-04-09 07:47 -27.66704 133.30103 35906 ft 434 kts 315°
2026-04-09 07:48 -27.62114 133.25688 35900 ft 434 kts 315°
2026-04-09 07:48 -27.57516 133.21270 35915 ft 434 kts 315°
2026-04-09 07:49 -27.52923 133.16862 35910 ft 434 kts 315°
2026-04-09 07:49 -27.48322 133.12452 35887 ft 434 kts 316°
2026-04-09 07:50 -27.43716 133.08042 35896 ft 434 kts 316°
2026-04-09 07:50 -27.39110 133.03638 35908 ft 435 kts 316°
2026-04-09 07:51 -27.34492 132.99226 35902 ft 435 kts 316°
2026-04-09 07:51 -27.29875 132.94820 35892 ft 436 kts 316°
2026-04-09 07:52 -27.25251 132.90413 35916 ft 436 kts 316°
2026-04-09 07:52 -27.20646 132.86029 35898 ft 437 kts 316°
2026-04-09 07:53 -27.16005 132.81615 35895 ft 437 kts 316°
2026-04-09 07:53 -27.11359 132.77201 35906 ft 438 kts 316°
2026-04-09 07:54 -27.06688 132.72768 35908 ft 439 kts 316°
2026-04-09 07:54 -27.02018 132.68343 35910 ft 440 kts 316°
2026-04-09 07:55 -26.97339 132.63911 35905 ft 440 kts 316°
2026-04-09 07:55 -26.92650 132.59477 35922 ft 441 kts 316°
2026-04-09 07:56 -26.87957 132.55056 35913 ft 441 kts 316°
2026-04-09 07:56 -26.83259 132.50639 35892 ft 441 kts 316°
2026-04-09 07:57 -26.78594 132.46256 35910 ft 441 kts 316°
2026-04-09 07:57 -26.73863 132.41813 35916 ft 442 kts 316°
2026-04-09 07:58 -26.69179 132.37420 35924 ft 442 kts 316°
2026-04-09 07:58 -26.64465 132.33003 35912 ft 442 kts 317°
2026-04-09 07:59 -26.59743 132.28583 35927 ft 443 kts 317°
2026-04-09 07:59 -26.55017 132.24165 35919 ft 444 kts 317°
2026-04-09 08:00 -26.50279 132.19741 35920 ft 444 kts 317°
2026-04-09 08:00 -26.45536 132.15317 35935 ft 444 kts 317°
2026-04-09 08:01 -26.40782 132.10888 35928 ft 445 kts 317°
2026-04-09 08:01 -26.36024 132.06459 35934 ft 446 kts 317°
2026-04-09 08:02 -26.31260 132.02030 35925 ft 447 kts 317°
2026-04-09 08:02 -26.26477 131.97588 35942 ft 448 kts 317°
2026-04-09 08:03 -26.21675 131.93133 35934 ft 450 kts 317°
2026-04-09 08:03 -26.16862 131.88675 35946 ft 450 kts 317°
2026-04-09 08:04 -26.12048 131.84219 35937 ft 450 kts 317°
2026-04-09 08:04 -26.07238 131.79772 35935 ft 450 kts 317°
2026-04-09 08:05 -26.02458 131.75359 35956 ft 449 kts 317°
2026-04-09 08:05 -25.97657 131.70929 35923 ft 448 kts 317°
2026-04-09 08:06 -25.92864 131.66512 35937 ft 448 kts 317°
2026-04-09 08:06 -25.88066 131.62096 35938 ft 448 kts 317°
2026-04-09 08:07 -25.83263 131.57679 35935 ft 449 kts 317°
2026-04-09 08:07 -25.79264 131.54006 35927 ft 449 kts 317°
2026-04-09 08:08 -25.74444 131.49583 35937 ft 450 kts 317°
2026-04-09 08:08 -25.69612 131.45153 35935 ft 451 kts 317°
2026-04-09 08:09 -25.64766 131.40716 35935 ft 452 kts 317°
2026-04-09 08:09 -25.59919 131.36282 35927 ft 452 kts 317°
2026-04-09 08:10 -25.55056 131.31840 35933 ft 453 kts 317°
2026-04-09 08:10 -25.50186 131.27395 35929 ft 453 kts 317°
2026-04-09 08:11 -25.45348 131.22984 35920 ft 454 kts 318°
2026-04-09 08:11 -25.40471 131.18543 35933 ft 454 kts 318°
2026-04-09 08:12 -25.35589 131.14101 35929 ft 454 kts 318°
2026-04-09 08:12 -25.30706 131.09663 35934 ft 454 kts 318°
2026-04-09 08:13 -25.25817 131.05224 35926 ft 455 kts 318°
2026-04-09 08:13 -25.20927 131.00788 35933 ft 455 kts 318°
2026-04-09 08:14 -25.16044 130.96345 35930 ft 455 kts 317°
2026-04-09 08:14 -25.11304 130.91720 35929 ft 454 kts 315°
2026-04-09 08:15 -25.06618 130.87036 35929 ft 455 kts 315°
2026-04-09 08:15 -25.01914 130.82366 35932 ft 455 kts 316°
2026-04-09 08:16 -24.97216 130.77740 35933 ft 456 kts 316°
2026-04-09 08:16 -24.92475 130.73088 35908 ft 456 kts 316°
2026-04-09 08:17 -24.87725 130.68433 35926 ft 457 kts 316°
2026-04-09 08:17 -24.82962 130.63770 35927 ft 458 kts 316°
2026-04-09 08:18 -24.78189 130.59100 35929 ft 459 kts 316°
2026-04-09 08:18 -24.73410 130.54431 35917 ft 460 kts 316°
2026-04-09 08:19 -24.68616 130.49751 35942 ft 461 kts 316°
2026-04-09 08:19 -24.63815 130.45070 35933 ft 462 kts 316°
2026-04-09 08:20 -24.59005 130.40385 35928 ft 462 kts 316°
2026-04-09 08:20 -24.54226 130.35735 35914 ft 462 kts 316°
2026-04-09 08:21 -24.49417 130.31060 35920 ft 462 kts 316°
2026-04-09 08:21 -24.44601 130.26385 35931 ft 462 kts 316°
2026-04-09 08:22 -24.39778 130.21707 35927 ft 462 kts 316°
2026-04-09 08:22 -24.34962 130.17041 35946 ft 462 kts 316°
2026-04-09 08:23 -24.30139 130.12373 35928 ft 461 kts 316°
2026-04-09 08:23 -24.25325 130.07719 35928 ft 461 kts 316°
2026-04-09 08:24 -24.20515 130.03074 35926 ft 461 kts 316°
2026-04-09 08:24 -24.15705 129.98433 35936 ft 461 kts 316°
2026-04-09 08:25 -24.10922 129.93822 35929 ft 461 kts 317°
2026-04-09 08:25 -24.06098 129.89177 35926 ft 462 kts 317°
2026-04-09 08:26 -24.01269 129.84533 35934 ft 462 kts 317°
2026-04-09 08:26 -23.96434 129.79887 35936 ft 463 kts 317°
2026-04-09 08:27 -23.91589 129.75237 35931 ft 464 kts 317°
2026-04-09 08:27 -23.86741 129.70590 35930 ft 464 kts 317°
2026-04-09 08:28 -23.81888 129.65941 35932 ft 464 kts 317°
2026-04-09 08:28 -23.77031 129.61294 35930 ft 464 kts 317°
2026-04-09 08:29 -23.72169 129.56647 35944 ft 465 kts 317°
2026-04-09 08:29 -23.67294 129.51992 35933 ft 465 kts 317°
2026-04-09 08:30 -23.62418 129.47340 35909 ft 465 kts 317°
2026-04-09 08:30 -23.57577 129.42727 35928 ft 466 kts 317°
2026-04-09 08:31 -23.50253 129.35758 35931 ft 466 kts 317°
2026-04-09 08:32 -23.45361 129.31108 35938 ft 467 kts 317°
2026-04-09 08:32 -23.40468 129.26462 35921 ft 467 kts 317°
2026-04-09 08:33 -23.35569 129.21815 35933 ft 467 kts 317°
2026-04-09 08:33 -23.30668 129.17171 35932 ft 467 kts 317°
2026-04-09 08:34 -23.25770 129.12535 35929 ft 467 kts 317°
2026-04-09 08:34 -23.20867 129.07898 35923 ft 467 kts 317°
2026-04-09 08:35 -23.15964 129.03266 35929 ft 467 kts 317°
2026-04-09 08:35 -23.11083 128.98659 35923 ft 467 kts 317°
2026-04-09 08:36 -23.06173 128.94029 35928 ft 468 kts 317°
2026-04-09 08:36 -23.01260 128.89400 35916 ft 468 kts 317°
2026-04-09 08:37 -22.96336 128.84768 35928 ft 468 kts 317°
2026-04-09 08:37 -22.91404 128.80139 35925 ft 469 kts 317°
2026-04-09 08:38 -22.86471 128.75511 35924 ft 469 kts 317°
2026-04-09 08:38 -22.81537 128.70886 35912 ft 469 kts 318°
2026-04-09 08:39 -22.76598 128.66259 35924 ft 469 kts 318°
2026-04-09 08:39 -22.71654 128.61633 35928 ft 470 kts 317°
2026-04-09 08:40 -22.66741 128.57041 35922 ft 469 kts 317°
2026-04-09 08:40 -22.61795 128.52421 35912 ft 469 kts 318°
2026-04-09 08:41 -22.56845 128.47803 35926 ft 470 kts 318°
2026-04-09 08:41 -22.51894 128.43188 35924 ft 470 kts 318°
2026-04-09 08:42 -22.46927 128.38564 35921 ft 471 kts 318°
2026-04-09 08:42 -22.41963 128.33947 35920 ft 471 kts 318°
2026-04-09 08:43 -22.36992 128.29327 35921 ft 471 kts 318°
2026-04-09 08:43 -22.32014 128.24705 35919 ft 471 kts 318°
2026-04-09 08:44 -22.27041 128.20093 35920 ft 471 kts 318°
2026-04-09 08:44 -22.22103 128.15518 35912 ft 471 kts 318°
2026-04-09 08:45 -22.17129 128.10913 35910 ft 471 kts 318°
2026-04-09 08:45 -22.12149 128.06308 35915 ft 471 kts 318°
2026-04-09 08:46 -22.07172 128.01710 35917 ft 471 kts 318°
2026-04-09 08:46 -22.02195 127.97115 35902 ft 471 kts 318°
2026-04-09 08:47 -21.97207 127.92516 35919 ft 472 kts 318°
2026-04-09 08:47 -21.92221 127.87923 35915 ft 472 kts 318°
2026-04-09 08:48 -21.87230 127.83329 35920 ft 472 kts 318°
2026-04-09 08:48 -21.82238 127.78739 35909 ft 472 kts 318°
2026-04-09 08:49 -21.77232 127.74141 35908 ft 473 kts 318°
2026-04-09 08:49 -21.72226 127.69547 35919 ft 473 kts 318°
2026-04-09 08:50 -21.67244 127.64979 35907 ft 474 kts 318°
2026-04-09 08:50 -21.62225 127.60382 35907 ft 473 kts 318°
2026-04-09 08:51 -21.57216 127.55797 35904 ft 473 kts 319°
2026-04-09 08:51 -21.52196 127.51208 35909 ft 474 kts 319°
2026-04-09 08:52 -21.47172 127.46618 35908 ft 474 kts 319°
2026-04-09 08:52 -21.42172 127.42056 35905 ft 474 kts 319°
2026-04-09 08:53 -21.37147 127.37474 35894 ft 474 kts 319°
2026-04-09 08:53 -21.32119 127.32894 35913 ft 474 kts 319°
2026-04-09 08:54 -21.27078 127.28307 35914 ft 475 kts 319°
2026-04-09 08:54 -21.22041 127.23728 35900 ft 475 kts 319°
2026-04-09 08:55 -21.16998 127.19147 35886 ft 475 kts 319°
2026-04-09 08:55 -21.11952 127.14568 35900 ft 475 kts 319°
2026-04-09 08:56 -21.06907 127.09994 35902 ft 476 kts 319°
2026-04-09 08:56 -21.01843 127.05407 35900 ft 476 kts 319°
2026-04-09 08:57 -20.96820 127.00861 35891 ft 476 kts 319°
2026-04-09 08:57 -20.91759 126.96286 35898 ft 476 kts 319°
2026-04-09 08:58 -20.86693 126.91709 35894 ft 477 kts 319°
2026-04-09 08:58 -20.82446 126.87876 35899 ft 477 kts 319°
2026-04-09 08:59 -20.77413 126.83337 35881 ft 477 kts 319°
2026-04-09 08:59 -20.72340 126.78766 35885 ft 477 kts 319°
2026-04-09 09:00 -20.67260 126.74193 35897 ft 478 kts 319°
2026-04-09 09:00 -20.62171 126.69617 35890 ft 478 kts 319°
2026-04-09 09:01 -20.57082 126.65044 35884 ft 478 kts 319°
2026-04-09 09:01 -20.51996 126.60478 35873 ft 478 kts 319°
2026-04-09 09:02 -20.46901 126.55908 35883 ft 478 kts 319°
2026-04-09 09:02 -20.41792 126.51329 35883 ft 479 kts 319°
2026-04-09 09:03 -20.36688 126.46759 35883 ft 479 kts 319°
2026-04-09 09:03 -20.31621 126.42227 35879 ft 479 kts 319°
2026-04-09 09:04 -20.26520 126.37668 35885 ft 479 kts 319°
2026-04-09 09:04 -20.21414 126.33108 35882 ft 478 kts 319°
2026-04-09 09:05 -20.16316 126.28559 35877 ft 478 kts 319°
2026-04-09 09:05 -20.11214 126.24009 35886 ft 478 kts 319°
2026-04-09 09:06 -20.06137 126.19431 35872 ft 478 kts 317°
2026-04-09 09:06 -20.01218 126.14677 35883 ft 478 kts 316°
2026-04-09 09:07 -19.96334 126.09886 35878 ft 478 kts 316°
2026-04-09 09:07 -19.91428 126.05115 35877 ft 478 kts 317°
2026-04-09 09:08 -19.86501 126.00358 35873 ft 479 kts 317°
2026-04-09 09:08 -19.81594 125.95633 35876 ft 479 kts 317°
2026-04-09 09:09 -19.76643 125.90872 35877 ft 480 kts 317°
2026-04-09 09:09 -19.71689 125.86109 35880 ft 481 kts 317°
2026-04-09 09:10 -19.66725 125.81339 35882 ft 481 kts 317°
2026-04-09 09:10 -19.61758 125.76570 35868 ft 482 kts 317°
2026-04-09 09:11 -19.56785 125.71802 35882 ft 482 kts 317°
2026-04-09 09:11 -19.51803 125.67028 35876 ft 483 kts 317°
2026-04-09 09:12 -19.46819 125.62255 35884 ft 483 kts 317°
2026-04-09 09:12 -19.41830 125.57483 35874 ft 483 kts 317°
2026-04-09 09:13 -19.36867 125.52740 35871 ft 483 kts 317°
2026-04-09 09:13 -19.31875 125.47972 35879 ft 484 kts 317°
2026-04-09 09:14 -19.26874 125.43201 35877 ft 484 kts 317°
2026-04-09 09:14 -19.21877 125.38437 35876 ft 484 kts 317°
2026-04-09 09:15 -19.16878 125.33676 35867 ft 484 kts 317°
2026-04-09 09:15 -19.11867 125.28907 35874 ft 484 kts 317°
2026-04-09 09:16 -19.06856 125.24142 35881 ft 485 kts 317°
2026-04-09 09:16 -19.01844 125.19380 35877 ft 485 kts 317°
2026-04-09 09:17 -18.96825 125.14616 35875 ft 485 kts 317°
2026-04-09 09:17 -18.91805 125.09854 35870 ft 485 kts 317°
2026-04-09 09:18 -18.86781 125.05093 35872 ft 486 kts 317°
2026-04-09 09:18 -18.81780 125.00359 35874 ft 486 kts 317°
2026-04-09 09:19 -18.76739 124.95589 35877 ft 487 kts 317°
2026-04-09 09:19 -18.71692 124.90818 35865 ft 487 kts 317°
2026-04-09 09:20 -18.66642 124.86049 35870 ft 487 kts 317°
2026-04-09 09:20 -18.61588 124.81279 35878 ft 488 kts 317°
2026-04-09 09:21 -18.56550 124.76528 35876 ft 488 kts 317°
2026-04-09 09:21 -18.51488 124.71760 35875 ft 488 kts 317°
2026-04-09 09:22 -18.46412 124.66981 35871 ft 488 kts 317°
2026-04-09 09:22 -18.41337 124.62207 35883 ft 489 kts 317°
2026-04-09 09:23 -18.36298 124.57471 35877 ft 489 kts 317°
2026-04-09 09:23 -18.31217 124.52700 35878 ft 489 kts 317°
2026-04-09 09:24 -18.26133 124.47930 35883 ft 490 kts 317°
2026-04-09 09:24 -18.21048 124.43163 35880 ft 490 kts 317°
2026-04-09 09:25 -18.15955 124.38391 35887 ft 490 kts 317°
2026-04-09 09:25 -18.10859 124.33622 35885 ft 491 kts 317°
2026-04-09 09:26 -18.05753 124.28846 35888 ft 491 kts 317°
2026-04-09 09:26 -18.00649 124.24077 35888 ft 491 kts 317°
2026-04-09 09:27 -17.95542 124.19308 35886 ft 491 kts 317°
2026-04-09 09:27 -17.90435 124.14543 35885 ft 491 kts 317°
2026-04-09 09:28 -17.85328 124.09783 35894 ft 491 kts 317°
2026-04-09 09:28 -17.80224 124.05028 35884 ft 490 kts 317°
2026-04-09 09:29 -17.75124 124.00280 35875 ft 490 kts 318°
2026-04-09 09:29 -17.70016 123.95530 35890 ft 491 kts 318°
2026-04-09 09:30 -17.64901 123.90775 35885 ft 491 kts 317°
2026-04-09 09:30 -17.59814 123.86050 35886 ft 492 kts 317°
2026-04-09 09:31 -17.54872 123.81094 35894 ft 492 kts 315°
2026-04-09 09:31 -17.50034 123.76022 35885 ft 492 kts 314°
2026-04-09 09:32 -17.45193 123.70944 35896 ft 493 kts 315°
2026-04-09 09:32 -17.40320 123.65864 35896 ft 494 kts 315°
2026-04-09 09:33 -17.35444 123.60797 35890 ft 494 kts 315°
2026-04-09 09:33 -17.30561 123.55728 35890 ft 494 kts 315°
2026-04-09 09:34 -17.25672 123.50658 35888 ft 494 kts 315°
2026-04-09 09:34 -17.18373 123.43093 35904 ft 495 kts 315°
2026-04-09 09:35 -17.13470 123.38017 35904 ft 496 kts 315°
2026-04-09 09:35 -17.08571 123.32948 35904 ft 496 kts 315°
2026-04-09 09:36 -17.03666 123.27878 35901 ft 496 kts 315°
2026-04-09 09:36 -16.98752 123.22801 35908 ft 496 kts 315°
2026-04-09 09:37 -16.93868 123.17760 35909 ft 497 kts 315°
2026-04-09 09:37 -16.88939 123.12677 35913 ft 497 kts 315°
2026-04-09 09:38 -16.84012 123.07600 35910 ft 497 kts 315°
2026-04-09 09:38 -16.79084 123.02525 35905 ft 497 kts 315°
2026-04-09 09:39 -16.74152 122.97449 35910 ft 498 kts 315°
2026-04-09 09:39 -16.69215 122.92373 35916 ft 498 kts 315°
2026-04-09 09:40 -16.64305 122.87329 35920 ft 499 kts 315°
2026-04-09 09:40 -16.59356 122.82248 35921 ft 499 kts 315°
2026-04-09 09:41 -16.54408 122.77172 35917 ft 499 kts 315°
2026-04-09 09:41 -16.49449 122.72089 35922 ft 500 kts 315°
2026-04-09 09:42 -16.44487 122.67007 35925 ft 500 kts 315°
2026-04-09 09:42 -16.39518 122.61921 35924 ft 501 kts 315°
2026-04-09 09:43 -16.34542 122.56832 35923 ft 501 kts 315°
2026-04-09 09:43 -16.29566 122.51747 35924 ft 501 kts 315°
2026-04-09 09:44 -16.24622 122.46698 35928 ft 502 kts 315°
2026-04-09 09:44 -16.19602 122.41576 35929 ft 502 kts 315°
2026-04-09 09:45 -16.14650 122.36526 35932 ft 502 kts 315°
2026-04-09 09:45 -16.09658 122.31440 35933 ft 502 kts 315°
2026-04-09 09:46 -16.04674 122.26365 35934 ft 501 kts 315°
2026-04-09 09:46 -15.99692 122.21297 35933 ft 501 kts 315°
2026-04-09 09:47 -15.94700 122.16222 35935 ft 501 kts 315°
2026-04-09 09:47 -15.89715 122.11158 35934 ft 501 kts 315°
2026-04-09 09:48 -15.84726 122.06094 35939 ft 501 kts 315°
2026-04-09 09:48 -15.80578 122.01885 35937 ft 502 kts 315°
2026-04-09 09:49 -15.75581 121.96819 35927 ft 502 kts 316°
2026-04-09 09:49 -15.70577 121.91750 35940 ft 503 kts 316°
2026-04-09 09:50 -15.65561 121.86673 35936 ft 504 kts 316°
2026-04-09 09:50 -15.60538 121.81591 35939 ft 504 kts 316°
2026-04-09 09:51 -15.55509 121.76507 35935 ft 505 kts 316°
2026-04-09 09:51 -15.50476 121.71424 35939 ft 505 kts 316°
2026-04-09 09:52 -15.45477 121.66378 35936 ft 504 kts 316°
2026-04-09 09:52 -15.40448 121.61305 35936 ft 504 kts 316°
2026-04-09 09:53 -15.35419 121.56236 35940 ft 504 kts 316°
2026-04-09 09:53 -15.30391 121.51172 35942 ft 504 kts 315°
2026-04-09 09:54 -15.25367 121.46115 35930 ft 503 kts 316°
2026-04-09 09:54 -15.20350 121.41068 35938 ft 503 kts 316°
2026-04-09 09:55 -15.15320 121.36012 35941 ft 503 kts 316°
2026-04-09 09:55 -15.10291 121.30961 35940 ft 504 kts 316°
2026-04-09 09:56 -15.05261 121.25912 35937 ft 504 kts 316°
2026-04-09 09:56 -15.00228 121.20865 35940 ft 503 kts 315°
2026-04-09 09:57 -14.95203 121.15828 35938 ft 504 kts 316°
2026-04-09 09:57 -14.90163 121.10779 35941 ft 504 kts 316°
2026-04-09 09:58 -14.85162 121.05773 35943 ft 504 kts 316°
2026-04-09 09:58 -14.80124 121.00734 35943 ft 504 kts 316°
2026-04-09 09:59 -14.75079 120.95691 35949 ft 504 kts 316°
2026-04-09 09:59 -14.70039 120.90657 35943 ft 504 kts 316°
2026-04-09 10:00 -14.64995 120.85621 35949 ft 504 kts 316°
2026-04-09 10:00 -14.59944 120.80583 35947 ft 504 kts 316°
2026-04-09 10:01 -14.54894 120.75549 35946 ft 505 kts 316°
2026-04-09 10:01 -14.49845 120.70519 35946 ft 505 kts 316°
2026-04-09 10:02 -14.44826 120.65521 35941 ft 505 kts 316°
2026-04-09 10:02 -14.39768 120.60489 35943 ft 505 kts 316°
2026-04-09 10:03 -14.34714 120.55464 35943 ft 505 kts 316°
2026-04-09 10:03 -14.29653 120.50436 35938 ft 505 kts 316°
2026-04-09 10:04 -14.24591 120.45410 35939 ft 505 kts 316°
2026-04-09 10:04 -14.19527 120.40385 35940 ft 505 kts 316°
2026-04-09 10:05 -14.14464 120.35364 35941 ft 505 kts 316°
2026-04-09 10:05 -14.09398 120.30344 35944 ft 506 kts 316°
2026-04-09 10:06 -14.04325 120.25319 35938 ft 506 kts 316°
2026-04-09 10:06 -13.99250 120.20297 35941 ft 506 kts 316°
2026-04-09 10:07 -13.94178 120.15280 35940 ft 506 kts 316°
2026-04-09 10:07 -13.89125 120.10286 35945 ft 506 kts 316°
2026-04-09 10:08 -13.84047 120.05270 35939 ft 506 kts 316°
2026-04-09 10:08 -13.78968 120.00256 35939 ft 506 kts 316°
2026-04-09 10:09 -13.73891 119.95247 35944 ft 506 kts 316°
2026-04-09 10:09 -13.68814 119.90242 35941 ft 506 kts 316°
2026-04-09 10:10 -13.63732 119.85235 35942 ft 506 kts 316°
2026-04-09 10:10 -13.58650 119.80230 35940 ft 506 kts 316°
2026-04-09 10:11 -13.53563 119.75224 35937 ft 506 kts 316°
2026-04-09 10:11 -13.48471 119.70217 35940 ft 507 kts 316°
2026-04-09 10:12 -13.43405 119.65237 35940 ft 507 kts 316°
2026-04-09 10:12 -13.38271 119.60194 35939 ft 507 kts 316°
2026-04-09 10:13 -13.33206 119.55222 35939 ft 507 kts 316°
2026-04-09 10:13 -13.28103 119.50216 35941 ft 507 kts 316°
2026-04-09 10:14 -13.23005 119.45218 35938 ft 507 kts 316°
2026-04-09 10:14 -13.17904 119.40220 35939 ft 507 kts 316°
2026-04-09 10:15 -13.12803 119.35225 35937 ft 507 kts 316°
2026-04-09 10:15 -13.07701 119.30231 35935 ft 507 kts 316°
2026-04-09 10:16 -13.02607 119.25249 35939 ft 506 kts 316°
2026-04-09 10:16 -12.97498 119.20256 35940 ft 507 kts 316°
2026-04-09 10:17 -12.92396 119.15272 35940 ft 507 kts 316°
2026-04-09 10:17 -12.87285 119.10281 35935 ft 507 kts 316°
2026-04-09 10:18 -12.82173 119.05293 35938 ft 507 kts 316°
2026-04-09 10:18 -12.77062 119.00309 35936 ft 508 kts 316°
2026-04-09 10:19 -12.71939 118.95316 35942 ft 508 kts 316°
2026-04-09 10:19 -12.66854 118.90363 35935 ft 508 kts 316°
2026-04-09 10:20 -12.61735 118.85380 35937 ft 508 kts 316°
2026-04-09 10:20 -12.56614 118.80398 35939 ft 508 kts 316°
2026-04-09 10:21 -12.51491 118.75416 35930 ft 508 kts 316°
2026-04-09 10:21 -12.46364 118.70434 35936 ft 508 kts 316°
2026-04-09 10:22 -12.41234 118.65452 35931 ft 508 kts 316°
2026-04-09 10:22 -12.36100 118.60468 35937 ft 508 kts 316°
2026-04-09 10:23 -12.30973 118.55494 35934 ft 508 kts 316°
2026-04-09 10:23 -12.25838 118.50515 35935 ft 508 kts 316°
2026-04-09 10:24 -12.20735 118.45571 35938 ft 508 kts 315°
2026-04-09 10:24 -12.15599 118.40596 35928 ft 509 kts 316°
2026-04-09 10:25 -12.10463 118.35624 35936 ft 509 kts 315°
2026-04-09 10:25 -12.05329 118.30656 35930 ft 508 kts 315°
2026-04-09 10:26 -12.00189 118.25685 35933 ft 508 kts 315°
2026-04-09 10:26 -11.95051 118.20722 35932 ft 508 kts 316°
2026-04-09 10:27 -11.89916 118.15765 35929 ft 508 kts 316°
2026-04-09 10:27 -11.84804 118.10830 35935 ft 508 kts 315°
2026-04-09 10:28 -11.79663 118.05869 35937 ft 508 kts 316°
2026-04-09 10:28 -11.74513 118.00902 35935 ft 509 kts 316°
2026-04-09 10:29 -11.69370 117.95945 35928 ft 509 kts 316°
2026-04-09 10:29 -11.64217 117.90981 35923 ft 509 kts 316°
2026-04-09 10:30 -11.59068 117.86023 35931 ft 509 kts 315°
2026-04-09 10:30 -11.53949 117.81096 35930 ft 510 kts 316°
2026-04-09 10:31 -11.48787 117.76132 35933 ft 510 kts 316°
2026-04-09 10:31 -11.43627 117.71171 35929 ft 510 kts 316°
2026-04-09 10:32 -11.38460 117.66207 35932 ft 510 kts 316°
2026-04-09 10:32 -11.33293 117.61244 35931 ft 510 kts 316°
2026-04-09 10:33 -11.28130 117.56289 35926 ft 510 kts 316°
2026-04-09 10:33 -11.22964 117.51333 35925 ft 510 kts 316°
2026-04-09 10:34 -11.17800 117.46382 35924 ft 510 kts 316°
2026-04-09 10:34 -11.12634 117.41431 35927 ft 510 kts 316°
2026-04-09 10:35 -11.07469 117.36484 35925 ft 510 kts 316°
2026-04-09 10:35 -11.02304 117.31539 35923 ft 510 kts 316°
2026-04-09 10:36 -10.97131 117.26589 35928 ft 510 kts 316°
2026-04-09 10:37 -10.89398 117.19194 35925 ft 511 kts 316°
2026-04-09 10:37 -10.84214 117.14240 35927 ft 511 kts 316°
2026-04-09 10:38 -10.79029 117.09287 35926 ft 512 kts 316°
2026-04-09 10:38 -10.74678 117.05133 35926 ft 512 kts 316°
2026-04-09 10:39 -10.69481 117.00174 35927 ft 512 kts 316°
2026-04-09 10:39 -10.64285 116.95217 35926 ft 512 kts 316°
2026-04-09 10:40 -10.59089 116.90263 35925 ft 512 kts 316°
2026-04-09 10:40 -10.53888 116.85307 35918 ft 513 kts 316°
2026-04-09 10:41 -10.48677 116.80343 35926 ft 514 kts 316°
2026-04-09 10:41 -10.43472 116.75388 35932 ft 515 kts 316°
2026-04-09 10:42 -10.38235 116.70405 35926 ft 515 kts 316°
2026-04-09 10:42 -10.32991 116.65417 36099 ft 517 kts 316°
2026-04-09 10:42 -10.30395 116.62950 36896 ft 503 kts 316°
2026-04-09 10:43 -10.27860 116.60543 37652 ft 494 kts 316°
2026-04-09 10:43 -10.25360 116.58167 37952 ft 494 kts 316°
2026-04-09 10:43 -10.22843 116.55775 37905 ft 496 kts 316°
2026-04-09 10:44 -10.17885 116.51066 37912 ft 486 kts 316°
2026-04-09 10:44 -10.12968 116.46396 37917 ft 485 kts 316°
2026-04-09 10:45 -10.08034 116.41714 37931 ft 486 kts 317°
2026-04-09 10:45 -10.03081 116.37016 37936 ft 488 kts 317°
2026-04-09 10:46 -9.98116 116.32309 37932 ft 489 kts 317°
2026-04-09 10:46 -9.93137 116.27591 37915 ft 490 kts 317°
2026-04-09 10:47 -9.88148 116.22864 37915 ft 491 kts 316°
2026-04-09 10:47 -9.83177 116.18159 37916 ft 492 kts 316°
2026-04-09 10:48 -9.78174 116.13423 37921 ft 492 kts 316°
2026-04-09 10:48 -9.73164 116.08683 37930 ft 492 kts 317°
2026-04-09 10:49 -9.68152 116.03944 37920 ft 492 kts 317°
2026-04-09 10:49 -9.63140 115.99207 37914 ft 492 kts 317°
2026-04-09 10:50 -9.58133 115.94476 37918 ft 492 kts 317°
2026-04-09 10:50 -9.53134 115.89755 37911 ft 491 kts 317°
2026-04-09 10:51 -9.48147 115.85046 37916 ft 489 kts 317°
2026-04-09 10:51 -9.43211 115.80389 37934 ft 487 kts 317°
2026-04-09 10:52 -9.38255 115.75714 37916 ft 487 kts 317°
2026-04-09 10:52 -9.33293 115.71036 37915 ft 486 kts 317°
2026-04-09 10:53 -9.28344 115.66371 37933 ft 486 kts 317°
2026-04-09 10:53 -9.23385 115.61699 37937 ft 486 kts 317°
2026-04-09 10:54 -9.18432 115.57035 37920 ft 486 kts 318°
2026-04-09 10:54 -9.13477 115.52370 37916 ft 487 kts 318°
2026-04-09 10:55 -9.08519 115.47705 37938 ft 486 kts 318°
2026-04-09 10:55 -9.03559 115.43040 37924 ft 487 kts 318°
2026-04-09 10:56 -8.98629 115.38404 37919 ft 487 kts 318°
2026-04-09 10:56 -8.93674 115.33747 37925 ft 487 kts 318°
2026-04-09 10:57 -8.88711 115.29084 37910 ft 487 kts 317°
2026-04-09 10:57 -8.83741 115.24415 37904 ft 487 kts 317°
2026-04-09 10:58 -8.78773 115.19749 37904 ft 487 kts 317°
2026-04-09 10:58 -8.73705 115.15194 37922 ft 487 kts 323°
2026-04-09 10:59 -8.68224 115.11175 37906 ft 487 kts 325°
2026-04-09 10:59 -8.62705 115.07204 37931 ft 487 kts 325°
2026-04-09 11:00 -8.57238 115.03239 37915 ft 487 kts 324°
2026-04-09 11:00 -8.51746 114.99229 37926 ft 487 kts 324°
2026-04-09 11:01 -8.46243 114.95203 37953 ft 488 kts 324°
2026-04-09 11:01 -8.40737 114.91179 37951 ft 488 kts 324°
2026-04-09 11:02 -8.35231 114.87157 37936 ft 489 kts 324°
2026-04-09 11:02 -8.29716 114.83130 37930 ft 489 kts 324°
2026-04-09 11:03 -8.24198 114.79104 37927 ft 490 kts 324°
2026-04-09 11:03 -8.18705 114.75096 37943 ft 491 kts 324°
2026-04-09 11:04 -8.13154 114.71047 37941 ft 493 kts 324°
2026-04-09 11:04 -8.07586 114.66988 37937 ft 494 kts 324°
2026-04-09 11:05 -8.02008 114.62922 37922 ft 495 kts 324°
2026-04-09 11:05 -7.96419 114.58851 37916 ft 496 kts 324°
2026-04-09 11:06 -7.90826 114.54778 37935 ft 496 kts 324°
2026-04-09 11:06 -7.85236 114.50708 37934 ft 495 kts 324°
2026-04-09 11:07 -7.79686 114.46668 37917 ft 494 kts 324°
2026-04-09 11:07 -7.74110 114.42612 37908 ft 494 kts 324°
2026-04-09 11:08 -7.68543 114.38563 37912 ft 493 kts 324°
2026-04-09 11:08 -7.62981 114.34519 37931 ft 492 kts 324°
2026-04-09 11:09 -7.57427 114.30481 37922 ft 492 kts 324°
2026-04-09 11:09 -7.51871 114.26445 37906 ft 493 kts 324°
2026-04-09 11:10 -7.46309 114.22404 37917 ft 493 kts 324°
2026-04-09 11:10 -7.40744 114.18364 37920 ft 493 kts 324°
2026-04-09 11:11 -7.35215 114.14349 37903 ft 493 kts 324°
2026-04-09 11:11 -7.29650 114.10311 37902 ft 493 kts 324°
2026-04-09 11:12 -7.24078 114.06268 37923 ft 493 kts 325°
2026-04-09 11:12 -7.18506 114.02227 37921 ft 494 kts 325°
2026-04-09 11:13 -7.12928 113.98183 37905 ft 494 kts 325°
2026-04-09 11:13 -7.07348 113.94137 37906 ft 494 kts 325°
2026-04-09 11:14 -7.01770 113.90094 37907 ft 494 kts 325°
2026-04-09 11:14 -6.96184 113.86050 37920 ft 494 kts 325°
2026-04-09 11:15 -6.90599 113.82010 37923 ft 495 kts 325°
2026-04-09 11:15 -6.85000 113.77958 37923 ft 496 kts 325°
2026-04-09 11:16 -6.79395 113.73903 37926 ft 497 kts 325°
2026-04-09 11:16 -6.73780 113.69841 37908 ft 497 kts 325°
2026-04-09 11:17 -6.68206 113.65810 37906 ft 497 kts 325°
2026-04-09 11:17 -6.62596 113.61754 37907 ft 496 kts 325°
2026-04-09 11:18 -6.56991 113.57703 37925 ft 496 kts 325°
2026-04-09 11:18 -6.51392 113.53658 37924 ft 495 kts 325°
2026-04-09 11:19 -6.45800 113.49618 37906 ft 495 kts 325°
2026-04-09 11:19 -6.40209 113.45580 37905 ft 495 kts 325°
2026-04-09 11:20 -6.34616 113.41542 37928 ft 494 kts 325°
2026-04-09 11:20 -6.29039 113.37516 37916 ft 493 kts 324°
2026-04-09 11:21 -6.23875 113.32994 37924 ft 493 kts 314°
2026-04-09 11:21 -6.19543 113.27664 37922 ft 492 kts 307°
2026-04-09 11:22 -6.15403 113.22184 37930 ft 492 kts 307°
2026-04-09 11:22 -6.11277 113.16752 37928 ft 492 kts 308°
2026-04-09 11:23 -6.07100 113.11301 37913 ft 492 kts 308°
2026-04-09 11:23 -6.02916 113.05861 37912 ft 493 kts 308°
2026-04-09 11:24 -5.98720 113.00409 37936 ft 493 kts 308°
2026-04-09 11:24 -5.94523 112.94955 37918 ft 494 kts 308°
2026-04-09 11:25 -5.90311 112.89481 37936 ft 495 kts 308°
2026-04-09 11:25 -5.86091 112.83998 37939 ft 497 kts 308°
2026-04-09 11:26 -5.81884 112.78532 37938 ft 498 kts 308°
2026-04-09 11:26 -5.77640 112.73022 37922 ft 499 kts 308°
2026-04-09 11:27 -5.73394 112.67508 37915 ft 499 kts 308°
2026-04-09 11:27 -5.69150 112.62000 37935 ft 498 kts 308°
2026-04-09 11:28 -5.64911 112.56501 37940 ft 497 kts 308°
2026-04-09 11:28 -5.60679 112.51011 37942 ft 496 kts 308°
2026-04-09 11:29 -5.56461 112.45541 37921 ft 495 kts 308°
2026-04-09 11:29 -5.52279 112.40119 37920 ft 494 kts 308°
2026-04-09 11:30 -5.48075 112.34670 37938 ft 493 kts 308°
2026-04-09 11:30 -5.43879 112.29232 37920 ft 493 kts 308°
2026-04-09 11:31 -5.39676 112.23787 37927 ft 493 kts 308°
2026-04-09 11:31 -5.36181 112.19260 37925 ft 493 kts 308°
2026-04-09 11:32 -5.31980 112.13821 37942 ft 493 kts 308°
2026-04-09 11:32 -5.27773 112.08374 37919 ft 494 kts 308°
2026-04-09 11:33 -5.23557 112.02918 37923 ft 495 kts 308°
2026-04-09 11:33 -5.19332 111.97451 37925 ft 496 kts 308°
2026-04-09 11:34 -5.15101 111.91977 37941 ft 497 kts 308°
2026-04-09 11:34 -5.10856 111.86488 37923 ft 497 kts 308°
2026-04-09 11:35 -5.06616 111.81005 37924 ft 497 kts 308°
2026-04-09 11:35 -5.02375 111.75523 37927 ft 497 kts 308°
2026-04-09 11:36 -4.98141 111.70051 37926 ft 497 kts 308°
2026-04-09 11:36 -4.93930 111.64610 37919 ft 497 kts 308°
2026-04-09 11:37 -4.89692 111.59135 37925 ft 497 kts 308°
2026-04-09 11:37 -4.85445 111.53650 37946 ft 498 kts 308°
2026-04-09 11:38 -4.81190 111.48155 37946 ft 499 kts 308°
2026-04-09 11:38 -4.76929 111.42655 37928 ft 499 kts 308°
2026-04-09 11:39 -4.70536 111.34403 37930 ft 500 kts 308°
2026-04-09 11:39 -4.66272 111.28901 37927 ft 500 kts 308°
2026-04-09 11:40 -4.62009 111.23401 37923 ft 499 kts 308°
2026-04-09 11:40 -4.57760 111.17900 37920 ft 498 kts 308°
2026-04-09 11:41 -4.53532 111.12405 37940 ft 497 kts 308°
2026-04-09 11:41 -4.49343 111.06961 37926 ft 496 kts 308°
2026-04-09 11:42 -4.45139 111.01502 37922 ft 494 kts 308°
2026-04-09 11:42 -4.40940 110.96052 37923 ft 494 kts 308°
2026-04-09 11:43 -4.36749 110.90613 37934 ft 493 kts 308°
2026-04-09 11:43 -4.32558 110.85175 37941 ft 493 kts 308°
2026-04-09 11:44 -4.28365 110.79736 37949 ft 493 kts 308°
2026-04-09 11:44 -4.24169 110.74295 37923 ft 494 kts 308°
2026-04-09 11:45 -4.19963 110.68841 37926 ft 494 kts 308°
2026-04-09 11:45 -4.15750 110.63379 37928 ft 495 kts 308°
2026-04-09 11:46 -4.11534 110.57913 37947 ft 496 kts 308°
2026-04-09 11:46 -4.07313 110.52443 37929 ft 496 kts 308°
2026-04-09 11:47 -4.03088 110.46968 37927 ft 497 kts 308°
2026-04-09 11:47 -3.98892 110.41531 37923 ft 496 kts 309°
2026-04-09 11:48 -3.94643 110.36093 37925 ft 495 kts 310°
2026-04-09 11:48 -3.90155 110.30855 37918 ft 495 kts 313°
2026-04-09 11:49 -3.85601 110.25662 37925 ft 496 kts 313°
2026-04-09 11:49 -3.81066 110.20430 37945 ft 497 kts 312°
2026-04-09 11:50 -3.76547 110.15168 37925 ft 498 kts 312°
2026-04-09 11:50 -3.72028 110.09895 37923 ft 499 kts 311°
2026-04-09 11:51 -3.67537 110.04655 37918 ft 499 kts 311°
2026-04-09 11:51 -3.63014 109.99384 37918 ft 499 kts 311°
2026-04-09 11:52 -3.58493 109.94118 37939 ft 498 kts 311°
2026-04-09 11:52 -3.53977 109.88857 37924 ft 498 kts 311°
2026-04-09 11:53 -3.49458 109.83594 37920 ft 498 kts 311°
2026-04-09 11:53 -3.44943 109.78337 37924 ft 498 kts 311°
2026-04-09 11:54 -3.40432 109.73085 37923 ft 497 kts 311°
2026-04-09 11:54 -3.35926 109.67839 37942 ft 497 kts 311°
2026-04-09 11:55 -3.31456 109.62636 37925 ft 496 kts 311°
2026-04-09 11:55 -3.26956 109.57399 37925 ft 496 kts 311°
2026-04-09 11:56 -3.22459 109.52166 37946 ft 496 kts 311°
2026-04-09 11:56 -3.17957 109.46929 37927 ft 496 kts 311°
2026-04-09 11:57 -3.13462 109.41700 37916 ft 495 kts 311°
2026-04-09 11:57 -3.08974 109.36480 37922 ft 495 kts 311°
2026-04-09 11:58 -3.04488 109.31263 37925 ft 494 kts 311°
2026-04-09 11:58 -3.00002 109.26046 37926 ft 494 kts 311°
2026-04-09 11:59 -2.95522 109.20836 37929 ft 494 kts 311°
2026-04-09 11:59 -2.91043 109.15628 37925 ft 494 kts 311°
2026-04-09 12:00 -2.86561 109.10429 37918 ft 494 kts 311°
2026-04-09 12:00 -2.82086 109.05261 37920 ft 495 kts 311°
2026-04-09 12:01 -2.77569 109.00045 37918 ft 496 kts 311°
2026-04-09 12:01 -2.73043 108.94816 37938 ft 497 kts 311°
2026-04-09 12:02 -2.68509 108.89575 37933 ft 498 kts 311°
2026-04-09 12:02 -2.63974 108.84335 37923 ft 498 kts 311°
2026-04-09 12:03 -2.59437 108.79091 37917 ft 498 kts 311°
2026-04-09 12:03 -2.54903 108.73852 37931 ft 498 kts 311°
2026-04-09 12:04 -2.50369 108.68615 37937 ft 498 kts 311°
2026-04-09 12:04 -2.45825 108.63362 37920 ft 498 kts 311°
2026-04-09 12:05 -2.41296 108.58110 37916 ft 499 kts 311°
2026-04-09 12:05 -2.36769 108.52859 37933 ft 498 kts 311°
2026-04-09 12:06 -2.32267 108.47639 37939 ft 498 kts 311°
2026-04-09 12:06 -2.27738 108.42390 37939 ft 498 kts 311°
2026-04-09 12:07 -2.23207 108.37139 37931 ft 498 kts 311°
2026-04-09 12:07 -2.18677 108.31888 37914 ft 499 kts 311°
2026-04-09 12:08 -2.14146 108.26637 37936 ft 498 kts 311°
2026-04-09 12:08 -2.09612 108.21382 37936 ft 498 kts 311°
2026-04-09 12:09 -2.05085 108.16137 37936 ft 498 kts 311°
2026-04-09 12:09 -2.00568 108.10899 37915 ft 498 kts 311°
2026-04-09 12:10 -1.96051 108.05655 37932 ft 497 kts 311°
2026-04-09 12:10 -1.91537 108.00415 37934 ft 497 kts 311°
2026-04-09 12:11 -1.87027 107.95179 37936 ft 497 kts 311°
2026-04-09 12:11 -1.82515 107.89942 37930 ft 497 kts 311°
2026-04-09 12:12 -1.78008 107.84711 37915 ft 497 kts 311°
2026-04-09 12:12 -1.73528 107.79514 37933 ft 496 kts 311°
2026-04-09 12:13 -1.69023 107.74285 37929 ft 496 kts 311°
2026-04-09 12:13 -1.64517 107.69057 37932 ft 496 kts 311°
2026-04-09 12:14 -1.60014 107.63833 37932 ft 496 kts 311°
2026-04-09 12:14 -1.55506 107.58603 37914 ft 497 kts 311°
2026-04-09 12:15 -1.51000 107.53375 37929 ft 497 kts 311°
2026-04-09 12:15 -1.46490 107.48144 37934 ft 497 kts 311°
2026-04-09 12:16 -1.41978 107.42908 37932 ft 497 kts 311°
2026-04-09 12:16 -1.37458 107.37666 37912 ft 498 kts 311°
2026-04-09 12:17 -1.32919 107.32481 37929 ft 498 kts 312°
2026-04-09 12:17 -1.28299 107.27303 37929 ft 499 kts 312°
2026-04-09 12:18 -1.23678 107.22121 37914 ft 499 kts 312°
2026-04-09 12:18 -1.19061 107.16925 37930 ft 499 kts 312°
2026-04-09 12:19 -1.14446 107.11725 37929 ft 499 kts 312°
2026-04-09 12:19 -1.10615 107.07407 37911 ft 499 kts 312°
2026-04-09 12:20 -1.06010 107.02220 37930 ft 499 kts 312°
2026-04-09 12:20 -1.01405 106.97033 37930 ft 498 kts 312°
2026-04-09 12:21 -0.96807 106.91854 37911 ft 498 kts 312°
2026-04-09 12:21 -0.92209 106.86675 37924 ft 498 kts 312°
2026-04-09 12:22 -0.87613 106.81499 37932 ft 497 kts 312°
2026-04-09 12:22 -0.83019 106.76326 37910 ft 497 kts 312°
2026-04-09 12:23 -0.78428 106.71155 37928 ft 497 kts 312°
2026-04-09 12:23 -0.73869 106.66020 37929 ft 497 kts 312°
2026-04-09 12:24 -0.69285 106.60858 37923 ft 496 kts 312°
2026-04-09 12:24 -0.64714 106.55709 37919 ft 494 kts 312°
2026-04-09 12:25 -0.60147 106.50561 37923 ft 494 kts 312°
2026-04-09 12:25 -0.55653 106.45436 37924 ft 493 kts 311°
2026-04-09 12:26 -0.51146 106.40278 37922 ft 493 kts 311°
2026-04-09 12:26 -0.46634 106.35120 37924 ft 493 kts 311°
2026-04-09 12:27 -0.42092 106.29933 37926 ft 492 kts 312°
2026-04-09 12:27 -0.37613 106.24819 37922 ft 492 kts 312°
2026-04-09 12:28 -0.33101 106.19668 37923 ft 492 kts 312°
2026-04-09 12:28 -0.28594 106.14522 37928 ft 493 kts 312°
2026-04-09 12:29 -0.24079 106.09367 37922 ft 493 kts 312°
2026-04-09 12:29 -0.19561 106.04208 37924 ft 493 kts 312°
2026-04-09 12:30 -0.15043 105.99051 37930 ft 493 kts 312°
2026-04-09 12:30 -0.10519 105.93886 37925 ft 494 kts 312°
2026-04-09 12:31 -0.05991 105.88715 37923 ft 494 kts 312°
2026-04-09 12:31 -0.01469 105.83553 37928 ft 494 kts 312°
2026-04-09 12:32 0.03055 105.78387 37920 ft 494 kts 311°
2026-04-09 12:32 0.07580 105.73221 37923 ft 493 kts 311°
2026-04-09 12:33 0.12094 105.68067 37920 ft 492 kts 311°
2026-04-09 12:33 0.16574 105.62953 37924 ft 492 kts 311°
2026-04-09 12:34 0.21083 105.57804 37925 ft 492 kts 311°
2026-04-09 12:34 0.25591 105.52656 37927 ft 492 kts 311°
2026-04-09 12:35 0.30105 105.47502 37925 ft 492 kts 311°
2026-04-09 12:35 0.34612 105.42354 37925 ft 492 kts 311°
2026-04-09 12:36 0.39121 105.37199 37924 ft 492 kts 310°
2026-04-09 12:36 0.43063 105.31615 37926 ft 492 kts 300°
2026-04-09 12:37 0.46472 105.25677 37928 ft 493 kts 300°
2026-04-09 12:37 0.49933 105.19811 37927 ft 493 kts 301°
2026-04-09 12:38 0.53439 105.13914 37926 ft 494 kts 301°
2026-04-09 12:38 0.56943 105.08009 37924 ft 494 kts 300°
2026-04-09 12:39 0.60449 105.02090 37923 ft 494 kts 300°
2026-04-09 12:39 0.63953 104.96172 37923 ft 494 kts 300°
2026-04-09 12:40 0.67456 104.90256 37926 ft 494 kts 301°
2026-04-09 12:41 0.72680 104.81435 37927 ft 493 kts 301°
2026-04-09 12:41 0.76193 104.75502 37920 ft 492 kts 301°
2026-04-09 12:42 0.79654 104.69656 37913 ft 492 kts 301°
2026-04-09 12:42 0.83156 104.63740 37914 ft 491 kts 301°
2026-04-09 12:43 0.86607 104.57909 37911 ft 491 kts 301°
2026-04-09 12:43 0.90076 104.52039 37912 ft 490 kts 300°
2026-04-09 12:44 0.93136 104.45952 37920 ft 490 kts 295°
2026-04-09 12:44 0.96040 104.39791 37916 ft 490 kts 295°
2026-04-09 12:45 0.98968 104.33637 37913 ft 491 kts 296°
2026-04-09 12:45 1.01920 104.27482 37913 ft 491 kts 296°
2026-04-09 12:46 1.04874 104.21327 37918 ft 491 kts 296°
2026-04-09 12:46 1.07841 104.15171 37916 ft 491 kts 296°
2026-04-09 12:47 1.10827 104.09027 37912 ft 492 kts 296°
2026-04-09 12:47 1.13811 104.02882 37909 ft 491 kts 296°
2026-04-09 12:48 1.16789 103.96740 37912 ft 491 kts 296°
2026-04-09 12:48 1.19768 103.90593 37911 ft 491 kts 296°
2026-04-09 12:49 1.23467 103.84938 37919 ft 488 kts 315°
2026-04-09 12:49 1.28921 103.80974 37889 ft 486 kts 340°
2026-04-09 12:50 1.35266 103.78862 37910 ft 485 kts 337°
2026-04-09 12:50 1.41260 103.75734 37916 ft 486 kts 332°
2026-04-09 12:51 1.47247 103.72568 37910 ft 487 kts 334°
2026-04-09 12:51 1.53509 103.70012 37911 ft 486 kts 344°
2026-04-09 12:52 1.60000 103.68092 37916 ft 487 kts 344°
2026-04-09 12:52 1.63178 103.66935 37890 ft 487 kts 333°
2026-04-09 12:52 1.65970 103.65022 37924 ft 488 kts 318°
2026-04-09 12:52 1.68232 103.62500 37882 ft 489 kts 304°
2026-04-09 12:53 1.69861 103.59577 37504 ft 487 kts 295°
2026-04-09 12:53 1.71298 103.56520 36936 ft 485 kts 295°
2026-04-09 12:53 1.72717 103.53464 36267 ft 484 kts 295°
2026-04-09 12:53 1.74150 103.50424 35599 ft 484 kts 295°
2026-04-09 12:54 1.75611 103.47385 34806 ft 487 kts 296°
2026-04-09 12:54 1.77103 103.44331 33996 ft 490 kts 296°
2026-04-09 12:54 1.78614 103.41262 33095 ft 494 kts 296°
2026-04-09 12:54 1.80137 103.38175 32224 ft 496 kts 297°
2026-04-09 12:55 1.81664 103.35079 31353 ft 498 kts 297°
2026-04-09 12:55 1.83196 103.31966 30445 ft 500 kts 297°
2026-04-09 12:55 1.84731 103.28845 29755 ft 498 kts 297°
2026-04-09 12:55 1.86252 103.25747 29011 ft 494 kts 297°
2026-04-09 12:56 1.87766 103.22662 28333 ft 497 kts 297°
2026-04-09 12:56 1.89293 103.19547 27791 ft 499 kts 297°
2026-04-09 12:56 1.90823 103.16425 27356 ft 499 kts 297°
2026-04-09 12:56 1.92346 103.13317 27025 ft 497 kts 297°
2026-04-09 12:57 1.93856 103.10235 26488 ft 491 kts 297°
2026-04-09 12:57 1.95347 103.07189 25905 ft 484 kts 297°
2026-04-09 12:57 1.96799 103.04226 25338 ft 477 kts 297°
2026-04-09 12:57 1.98251 103.01264 24759 ft 472 kts 297°
2026-04-09 12:58 1.99684 102.98340 24193 ft 466 kts 297°
2026-04-09 12:58 2.01104 102.95442 23633 ft 462 kts 297°
2026-04-09 12:58 2.02509 102.92574 23005 ft 457 kts 297°
2026-04-09 12:58 2.03899 102.89738 22429 ft 451 kts 297°
2026-04-09 12:59 2.05266 102.86944 21865 ft 445 kts 297°
2026-04-09 12:59 2.06613 102.84177 21346 ft 440 kts 297°
2026-04-09 12:59 2.07938 102.81444 20829 ft 434 kts 297°
2026-04-09 12:59 2.09248 102.78740 20335 ft 430 kts 297°
2026-04-09 13:00 2.10544 102.76067 19828 ft 425 kts 297°
2026-04-09 13:00 2.11830 102.73415 19326 ft 421 kts 297°
2026-04-09 13:00 2.13105 102.70787 18818 ft 418 kts 296°
2026-04-09 13:00 2.14370 102.68181 18305 ft 415 kts 296°
2026-04-09 13:01 2.15623 102.65598 17766 ft 411 kts 296°
2026-04-09 13:01 2.16870 102.63037 17239 ft 406 kts 296°
2026-04-09 13:01 2.18117 102.60521 16743 ft 401 kts 297°
2026-04-09 13:01 2.19356 102.58042 16262 ft 396 kts 297°
2026-04-09 13:02 2.20584 102.55591 15782 ft 392 kts 297°
2026-04-09 13:02 2.21782 102.53195 15315 ft 388 kts 296°
2026-04-09 13:02 2.22985 102.50788 14846 ft 386 kts 296°
2026-04-09 13:02 2.24186 102.48383 14368 ft 388 kts 296°
2026-04-09 13:03 2.25402 102.45946 13875 ft 395 kts 296°
2026-04-09 13:03 2.26630 102.43482 13327 ft 395 kts 296°
2026-04-09 13:03 2.27850 102.41033 12803 ft 390 kts 296°
2026-04-09 13:03 2.29047 102.38631 12312 ft 383 kts 296°
2026-04-09 13:04 2.30219 102.36277 11927 ft 373 kts 296°
2026-04-09 13:04 2.31364 102.33979 11482 ft 366 kts 296°
2026-04-09 13:04 2.32489 102.31720 11112 ft 358 kts 296°
2026-04-09 13:04 2.33575 102.29541 10969 ft 343 kts 296°
2026-04-09 13:05 2.34617 102.27450 10819 ft 330 kts 296°
2026-04-09 13:05 2.35620 102.25436 10680 ft 317 kts 296°
2026-04-09 13:05 2.36582 102.23505 10547 ft 305 kts 296°
2026-04-09 13:05 2.37508 102.21645 10423 ft 293 kts 296°
2026-04-09 13:06 2.38396 102.19862 10306 ft 281 kts 296°
2026-04-09 13:06 2.39249 102.18148 10184 ft 269 kts 296°
2026-04-09 13:06 2.40079 102.16480 10089 ft 270 kts 295°
2026-04-09 13:06 2.40935 102.14759 9817 ft 281 kts 296°
2026-04-09 13:07 2.41809 102.13002 9490 ft 282 kts 296°
2026-04-09 13:07 2.42677 102.11259 9160 ft 278 kts 296°
2026-04-09 13:07 2.43531 102.09545 8832 ft 273 kts 295°
2026-04-09 13:07 2.44360 102.07880 8525 ft 269 kts 295°
2026-04-09 13:08 2.45186 102.06220 8216 ft 264 kts 295°
2026-04-09 13:08 2.45998 102.04589 7923 ft 260 kts 295°
2026-04-09 13:08 2.46798 102.02982 7633 ft 258 kts 295°
2026-04-09 13:08 2.47608 102.01353 7341 ft 264 kts 295°
2026-04-09 13:09 2.48431 101.99698 7047 ft 268 kts 295°
2026-04-09 13:09 2.49258 101.98036 6736 ft 265 kts 295°
2026-04-09 13:09 2.49801 101.96947 6528 ft 262 kts 295°
2026-04-09 13:09 2.50608 101.95325 6295 ft 257 kts 295°
2026-04-09 13:10 2.51643 101.93244 6097 ft 242 kts 295°
2026-04-09 13:10 2.52133 101.92260 5932 ft 238 kts 295°
2026-04-09 13:10 2.52864 101.90791 5656 ft 233 kts 295°
2026-04-09 13:10 2.53577 101.89357 5381 ft 228 kts 295°
2026-04-09 13:11 2.54271 101.87964 5150 ft 220 kts 295°
2026-04-09 13:11 2.54945 101.86610 4870 ft 215 kts 295°
2026-04-09 13:11 2.55623 101.85301 4630 ft 205 kts 303°
2026-04-09 13:11 2.56641 101.84382 4436 ft 195 kts 325°
2026-04-09 13:12 2.57771 101.83633 4148 ft 192 kts 324°
2026-04-09 13:12 2.58862 101.82892 3903 ft 189 kts 324°
2026-04-09 13:12 2.59950 101.82161 3803 ft 198 kts 324°
2026-04-09 13:12 2.61115 101.81380 3490 ft 198 kts 325°
2026-04-09 13:13 2.62225 101.80639 3240 ft 187 kts 325°
2026-04-09 13:13 2.63271 101.79940 2896 ft 178 kts 325°
2026-04-09 13:13 2.64273 101.79270 2644 ft 167 kts 325°
2026-04-09 13:13 2.65213 101.78641 2429 ft 160 kts 325°
2026-04-09 13:14 2.66134 101.78024 2220 ft 155 kts 325°
2026-04-09 13:14 2.67009 101.77438 2001 ft 153 kts 325°
2026-04-09 13:14 2.67895 101.76847 1797 ft 153 kts 326°
2026-04-09 13:14 2.68777 101.76252 1593 ft 153 kts 325°
2026-04-09 13:15 2.69661 101.75652 1370 ft 154 kts 326°
2026-04-09 13:15 2.70548 101.75059 1131 ft 153 kts 326°
2026-04-09 13:15 2.71438 101.74473 937 ft 152 kts 326°
2026-04-09 13:15 2.72317 101.73878 767 ft 153 kts 326°
2026-04-09 13:16 2.73211 101.73285 534 ft 154 kts 326°
2026-04-09 13:16 2.74098 101.72700 318 ft 153 kts 325°
2026-04-09 13:16 2.74986 101.72106 106 ft 154 kts 325°
2026-04-09 13:16 2.75811 101.71550 68 ft 126 kts 326°
2026-04-09 13:17 2.76322 101.71208 65 ft 50 kts 326°
2026-04-09 13:17 2.76504 101.71053 69 ft 26 kts 308°
2026-04-09 13:17 2.76570 101.70937 63 ft 12 kts 295°
2026-04-09 13:17 2.76575 101.70867 64 ft 10 kts 243°
2026-04-09 13:18 2.76511 101.70856 62 ft 11 kts 155°
2026-04-09 13:18 2.76448 101.70897 62 ft 11 kts 147°
2026-04-09 13:18 2.76383 101.70940 62 ft 12 kts 147°
2026-04-09 13:18 2.76301 101.70995 63 ft 18 kts 146°
2026-04-09 13:19 2.76186 101.71073 67 ft 20 kts 146°
2026-04-09 13:19 2.76069 101.71151 65 ft 20 kts 146°
2026-04-09 13:19 2.75954 101.71228 63 ft 16 kts 146°
2026-04-09 13:19 2.75904 101.71228 63 ft 8 kts 226°
2026-04-09 13:20 2.75853 101.71191 65 ft 10 kts 181°
2026-04-09 13:20 2.75790 101.71224 66 ft 11 kts 146°
2026-04-09 13:20 2.75723 101.71270 64 ft 12 kts 146°
2026-04-09 13:20 2.75643 101.71324 65 ft 16 kts 146°
2026-04-09 13:21 2.75534 101.71396 67 ft 20 kts 146°
2026-04-09 13:21 2.75422 101.71474 84 ft 20 kts 144°
2026-04-09 13:21 2.75309 101.71550 83 ft 20 kts 146°
2026-04-09 13:21 2.75194 101.71626 85 ft 20 kts 147°
2026-04-09 13:22 2.75079 101.71701 85 ft 20 kts 146°
2026-04-09 13:22 2.74965 101.71778 85 ft 20 kts 146°
2026-04-09 13:22 2.74851 101.71855 85 ft 20 kts 146°
2026-04-09 13:22 2.74737 101.71932 86 ft 20 kts 146°
2026-04-09 13:23 2.74622 101.72008 86 ft 20 kts 146°
2026-04-09 13:23 2.74524 101.72073 83 ft 15 kts 146°
2026-04-09 13:23 2.74443 101.72103 84 ft 13 kts 200°
2026-04-09 13:23 2.74386 101.72033 85 ft 14 kts 235°
2026-04-09 13:24 2.74329 101.71952 85 ft 15 kts 235°
2026-04-09 13:24 2.74265 101.71856 85 ft 19 kts 237°
2026-04-09 13:24 2.74190 101.71742 85 ft 20 kts 236°
2026-04-09 13:24 2.74111 101.71626 85 ft 20 kts 236°
2026-04-09 13:25 2.74031 101.71506 86 ft 21 kts 236°
2026-04-09 13:25 2.73950 101.71383 85 ft 21 kts 236°
2026-04-09 13:25 2.73868 101.71262 85 ft 19 kts 236°
2026-04-09 13:25 2.73803 101.71165 85 ft 13 kts 236°
2026-04-09 13:26 2.73762 101.71105 84 ft 9 kts 236°
2026-04-09 13:26 2.73729 101.71055 85 ft 8 kts 236°
2026-04-09 13:26 2.73705 101.71027 86 ft 5 kts 211°
2026-04-09 13:26 2.73677 101.71035 82 ft 4 kts 143°
2026-04-09 13:27 2.73658 101.71048 85 ft 4 kts 146°
2026-04-09 13:27 2.73639 101.71061 85 ft 2 kts 146°
2026-04-09 13:27 2.73629 101.71068 83 ft 0 kts 146°